Location: B?dimalle
(17.1788°N, 80.5377°E)
Time: 20:25:04
(UTC+00:00)

Vanguard 1 Rocket - Visible Passes

Search period start: 15 February 2026 00:00
Search period end: 25 February 2026 00:00
Orbit: 652 x 4215 km, 34.3° (Epoch: 12 February)

Date Brightness Start Highest point End Pass type
(mag) Time Alt. Az. Time Alt. Az. Time Alt. Az.
15 Feb 10.6 13:27:38 10° NW 13:49:57 72° NNE 14:11:20 20° ESE visible
15 Feb 10.5 15:58:36 10° WNW 16:23:47 61° SW 16:28:36 55° S visible
15 Feb 11.6 18:39:49 10° W 18:45:52 15° WSW 18:45:52 15° WSW visible
16 Feb 10.5 14:42:42 10° WNW 15:07:12 81° SW 15:21:18 37° SE visible
16 Feb 11.1 17:17:30 10° WNW 17:38:35 34° SW 17:38:35 34° SW visible
17 Feb 10.6 13:28:00 10° WNW 13:50:01 80° NNE 14:14:08 14° ESE visible
17 Feb 10.8 15:59:10 10° WNW 16:23:21 52° SW 16:31:25 42° S visible
17 Feb 11.7 18:44:27 10° WSW 18:48:44 12° WSW 18:48:44 12° WSW visible
18 Feb 10.7 14:43:03 10° WNW 15:06:54 71° SW 15:24:23 27° SE visible
18 Feb 11.2 17:19:16 10° W 17:38:46 27° SW 17:41:41 27° SW visible
19 Feb 10.6 13:28:21 10° WNW 13:49:57 89° NNE 14:16:03 10° SE visible
19 Feb 11.0 16:00:01 10° WNW 16:22:57 44° SW 16:34:46 29° S visible
20 Feb 10.8 14:43:33 10° WNW 15:06:34 62° SW 15:27:58 16° SE visible
20 Feb 11.4 17:21:53 10° W 17:38:45 22° SW 17:45:18 19° SSW visible
21 Feb 10.6 13:28:46 10° WNW 13:49:47 81° SW 14:15:59 10° SE visible
21 Feb 11.3 16:01:15 10° W 16:22:41 36° SW 16:38:35 18° S visible
22 Feb 10.5 12:15:05 10° NW 12:33:05 79° NNE 12:59:48 10° ESE visible
22 Feb 11.0 14:44:14 10° WNW 15:06:16 53° SW 15:29:54 10° SSE visible
22 Feb 11.6 17:25:51 10° WSW 17:39:02 16° SW 17:49:16 12° SSW visible
23 Feb 10.8 13:29:15 10° WNW 13:49:37 71° SW 14:15:40 10° SE visible
23 Feb 11.5 16:03:02 10° W 16:22:36 29° SW 16:41:21 10° S visible
24 Feb 10.6 12:15:33 10° WNW 12:33:06 89° NE 12:59:49 10° SE visible
24 Feb 11.2 14:45:13 10° WNW 15:06:05 44° SW 15:29:04 10° SSE visible
24 Feb 11.8 17:32:45 10° WSW 17:39:45 12° SW 17:46:24 10° SSW visible
